Data No, UTC Date,UTC Time,Latitude,Longitude,Course(deg),Temp(degC),Sal(psu)
570,2020/5/8,9:29,42-36.99N,141-37.10E,208,7.936,30.1464
571,2020/5/8,9:30,42-36.78N,141-36.94E,209,7.861,30.1574
572,2020/5/8,9:31,42-36.55N,141-36.82E,197,7.439,30.1292
573,2020/5/8,9:32,42-36.29N,141-36.79E,183,7.258,30.0742
574,2020/5/8,9:33,42-36.03N,141-36.80E,177,7.235,30.0993
575,2020/5/8,9:34,42-35.76N,141-36.82E,177,7.037,30.1564
576,2020/5/8,9:35,42-35.48N,141-36.84E,176,7.033,30.2043
577,2020/5/8,9:36,42-35.19N,141-36.87E,176,7.13,30.2515
578,2020/5/8,9:37,42-34.95N,141-36.91E,176,7.157,30.2933
579,2020/5/8,9:38,42-34.65N,141-36.94E,176,7.169,30.3247
580,2020/5/8,9:39,42-34.40N,141-36.95E,176,7.125,30.3464
581,2020/5/8,9:40,42-34.09N,141-36.97E,177,6.886,30.3762
582,2020/5/8,9:41,42-33.78N,141-36.99E,177,6.865,30.4449
583,2020/5/8,9:42,42-33.53N,141-37.00E,178,6.821,30.5174
584,2020/5/8,9:43,42-33.24N,141-37.01E,177,6.756,30.6088
585,2020/5/8,9:44,42-32.97N,141-37.02E,177,6.716,30.7027
586,2020/5/8,9:45,42-32.71N,141-37.04E,177,6.715,30.7792
587,2020/5/8,9:46,42-32.48N,141-37.04E,177,6.724,30.8539
588,2020/5/8,9:47,42-32.21N,141-37.05E,177,6.701,30.9018
589,2020/5/8,9:48,42-31.90N,141-37.07E,177,6.607,30.9452
590,2020/5/8,9:49,42-31.66N,141-37.07E,178,6.533,30.9867
591,2020/5/8,9:50,42-31.38N,141-37.08E,178,6.532,31.0107
592,2020/5/8,9:51,42-31.12N,141-37.10E,178,6.489,31.0295
593,2020/5/8,9:52,42-30.85N,141-37.10E,178,6.421,31.0432
594,2020/5/8,9:53,42-30.53N,141-37.12E,178,6.453,31.0494
595,2020/5/8,9:54,42-30.27N,141-37.12E,178,6.502,31.0623
596,2020/5/8,9:55,42-30.00N,141-37.13E,178,6.552,31.0669
597,2020/5/8,9:56,42-29.73N,141-37.14E,178,6.58,31.067
598,2020/5/8,9:57,42-29.43N,141-37.16E,177,6.806,31.0704
599,2020/5/8,9:58,42-29.18N,141-37.17E,178,6.912,31.0726
600,2020/5/8,9:59,42-28.90N,141-37.17E,179,6.955,31.0882
601,2020/5/8,10:00,42-28.64N,141-37.18E,178,6.827,31.0991
602,2020/5/8,10:01,42-28.40N,141-37.19E,178,6.904,31.1188
603,2020/5/8,10:02,42-28.14N,141-37.20E,178,6.883,31.132
604,2020/5/8,10:03,42-27.82N,141-37.21E,178,6.865,31.1285
605,2020/5/8,10:04,42-27.54N,141-37.22E,178,6.927,31.1248
606,2020/5/8,10:05,42-27.28N,141-37.22E,178,6.977,31.1204
607,2020/5/8,10:06,42-26.99N,141-37.23E,178,6.988,31.1169
608,2020/5/8,10:07,42-26.73N,141-37.24E,178,6.973,31.1191
609,2020/5/8,10:08,42-26.43N,141-37.25E,179,6.941,31.1325
610,2020/5/8,10:09,42-26.19N,141-37.25E,179,6.977,31.1515
611,2020/5/8,10:10,42-25.92N,141-37.24E,183,7.026,31.1692
612,2020/5/8,10:11,42-25.63N,141-37.19E,187,6.904,31.1978
613,2020/5/8,10:12,42-25.37N,141-37.12E,190,6.787,31.2241
614,2020/5/8,10:13,42-25.11N,141-37.05E,191,6.734,31.2538
615,2020/5/8,10:14,42-24.85N,141-36.98E,191,6.689,31.2763
616,2020/5/8,10:15,42-24.56N,141-36.90E,191,6.662,31.2935
617,2020/5/8,10:16,42-24.30N,141-36.80E,194,---,31.3126
618,2020/5/8,10:17,42-24.04N,141-36.70E,196,6.549,31.3265
619,2020/5/8,10:18,42-23.80N,141-36.60E,196,6.478,31.3353
620,2020/5/8,10:19,42-23.54N,141-36.49E,197,6.413,31.326
621,2020/5/8,10:20,42-23.28N,141-36.38E,197,6.361,31.3175
622,2020/5/8,10:21,42-23.03N,141-36.27E,197,6.234,31.3041
623,2020/5/8,10:22,42-22.74N,141-36.15E,197,---,31.3017
624,2020/5/8,10:23,42-22.50N,141-36.05E,197,6.049,31.2859
625,2020/5/8,10:24,42-22.25N,141-35.94E,197,5.982,31.2727
626,2020/5/8,10:25,42-21.97N,141-35.82E,197,5.925,31.2622
627,2020/5/8,10:26,42-21.72N,141-35.73E,194,5.889,31.2591
628,2020/5/8,10:27,42-21.45N,141-35.65E,191,5.953,31.2607
629,2020/5/8,10:28,42-21.12N,141-35.58E,186,6.037,31.2574
630,2020/5/8,10:29,42-20.90N,141-35.56E,184,6.103,31.2618
631,2020/5/8,10:30,42-20.61N,141-35.55E,180,6.078,31.2612
632,2020/5/8,10:31,42-20.34N,141-35.55E,178,6.134,31.2651
633,2020/5/8,10:32,42-20.06N,141-35.56E,177,6.143,31.2595
634,2020/5/8,10:33,42-19.78N,141-35.58E,177,6.133,31.2599
635,2020/5/8,10:34,42-19.49N,141-35.58E,178,6.133,31.2563
636,2020/5/8,10:35,42-19.20N,141-35.59E,178,6.206,31.2584
637,2020/5/8,10:36,42-18.93N,141-35.60E,178,6.288,31.2572
638,2020/5/8,10:37,42-18.66N,141-35.61E,177,6.3,31.2727
639,2020/5/8,10:38,42-18.40N,141-35.62E,178,6.374,31.2884
640,2020/5/8,10:39,42-18.09N,141-35.63E,180,6.382,31.2971
641,2020/5/8,10:40,42-17.83N,141-35.62E,181,6.398,31.3157
642,2020/5/8,10:41,42-17.55N,141-35.61E,181,6.455,31.333
643,2020/5/8,10:42,42-17.27N,141-35.60E,181,6.658,31.3522
644,2020/5/8,10:43,42-16.98N,141-35.60E,180,6.844,31.3717
645,2020/5/8,10:44,42-16.70N,141-35.60E,179,7.099,31.4059
646,2020/5/8,10:45,42-16.38N,141-35.59E,180,6.815,31.4557
647,2020/5/8,10:46,42-16.03N,141-35.58E,180,6.764,31.5166
648,2020/5/8,10:47,42-15.81N,141-35.57E,180,6.777,31.5582
649,2020/5/8,10:48,42-15.56N,141-35.57E,180,6.754,31.5953
650,2020/5/8,10:49,42-15.28N,141-35.57E,180,6.665,31.6373
651,2020/5/8,10:50,42-14.99N,141-35.57E,180,6.569,31.6566
652,2020/5/8,10:51,42-14.71N,141-35.56E,180,6.527,31.6667
653,2020/5/8,10:52,42-14.37N,141-35.56E,181,6.545,31.6727
654,2020/5/8,10:53,42-14.14N,141-35.55E,180,6.584,31.679
655,2020/5/8,10:54,42-13.85N,141-35.55E,180,6.612,31.69
656,2020/5/8,10:55,42-13.58N,141-35.54E,180,6.638,31.6987
657,2020/5/8,10:56,42-13.30N,141-35.54E,180,6.638,31.7123
658,2020/5/8,10:57,42-13.01N,141-35.53E,181,6.67,31.7187
659,2020/5/8,10:58,42-12.72N,141-35.52E,181,6.707,31.7257
660,2020/5/8,10:59,42-12.43N,141-35.51E,180,6.738,31.7304
661,2020/5/8,11:00,42-12.15N,141-35.50E,180,6.745,31.7355
662,2020/5/8,11:01,42-11.86N,141-35.50E,180,6.772,31.7372
663,2020/5/8,11:02,42-11.56N,141-35.49E,180,6.809,31.74
664,2020/5/8,11:03,42-11.28N,141-35.49E,180,6.835,31.7411
665,2020/5/8,11:04,42-10.95N,141-35.48E,180,6.86,31.7472
666,2020/5/8,11:05,42-10.66N,141-35.47E,180,6.903,31.7522
667,2020/5/8,11:06,42-10.38N,141-35.47E,180,6.943,31.7567
668,2020/5/8,11:07,42-10.11N,141-35.46E,180,6.969,31.7658
669,2020/5/8,11:08,42-09.76N,141-35.45E,180,7.011,31.7724
670,2020/5/8,11:09,42-09.52N,141-35.45E,180,7.056,31.7825
671,2020/5/8,11:10,42-09.25N,141-35.45E,180,7.095,31.7911
672,2020/5/8,11:11,42-08.95N,141-35.44E,180,7.133,31.8208
673,2020/5/8,11:12,42-08.62N,141-35.43E,180,6.986,31.8265
674,2020/5/8,11:13,42-08.33N,141-35.43E,181,6.923,31.8317
675,2020/5/8,11:14,42-08.08N,141-35.42E,180,6.969,31.834
676,2020/5/8,11:15,42-07.77N,141-35.41E,181,7.088,31.8529
677,2020/5/8,11:16,42-07.50N,141-35.39E,180,7.144,31.8707
678,2020/5/8,11:17,42-07.21N,141-35.38E,181,7.193,31.906
679,2020/5/8,11:18,42-06.92N,141-35.37E,181,7.238,31.9412
680,2020/5/8,11:19,42-06.63N,141-35.36E,180,7.275,31.9643
681,2020/5/8,11:20,42-06.32N,141-35.35E,181,7.345,31.9934
682,2020/5/8,11:21,42-06.04N,141-35.33E,182,7.4,32.016
683,2020/5/8,11:22,42-05.75N,141-35.31E,182,7.473,32.0431
684,2020/5/8,11:23,42-05.45N,141-35.30E,181,---,32.065
685,2020/5/8,11:24,42-05.18N,141-35.30E,179,7.709,32.0885
686,2020/5/8,11:25,42-04.86N,141-35.31E,177,8,32.1091
687,2020/5/8,11:26,42-04.60N,141-35.32E,178,8.156,32.1408
688,2020/5/8,11:27,42-04.33N,141-35.32E,178,8.261,32.2061
689,2020/5/8,11:28,42-04.06N,141-35.33E,178,8.34,32.2612
690,2020/5/8,11:29,42-03.78N,141-35.35E,176,8.389,32.2841
691,2020/5/8,11:30,42-03.47N,141-35.38E,175,8.444,32.3212
692,2020/5/8,11:31,42-03.23N,141-35.40E,175,8.492,32.3534
693,2020/5/8,11:32,42-02.91N,141-35.43E,176,8.591,32.3916
694,2020/5/8,11:33,42-02.67N,141-35.45E,176,8.637,32.417
695,2020/5/8,11:34,42-02.40N,141-35.48E,175,8.641,32.4491
696,2020/5/8,11:35,42-02.11N,141-35.50E,175,8.61,32.4757
697,2020/5/8,11:36,42-01.84N,141-35.53E,175,8.573,32.4961
698,2020/5/8,11:37,42-01.55N,141-35.56E,175,8.552,32.5125
699,2020/5/8,11:38,42-01.28N,141-35.58E,175,8.457,32.52
700,2020/5/8,11:39,42-01.02N,141-35.61E,175,8.44,32.5252
701,2020/5/8,11:40,42-00.74N,141-35.64E,175,8.422,32.5261
702,2020/5/8,11:41,42-00.46N,141-35.67E,175,8.413,32.5248
703,2020/5/8,11:42,42-00.18N,141-35.70E,175,8.418,32.5137
704,2020/5/8,11:43,41-59.92N,141-35.73E,174,8.435,32.5213
705,2020/5/8,11:44,41-59.64N,141-35.76E,175,8.446,32.5225
706,2020/5/8,11:45,41-59.37N,141-35.80E,173,8.44,32.5217
707,2020/5/8,11:46,41-59.09N,141-35.84E,172,8.457,32.5206
708,2020/5/8,11:47,41-58.83N,141-35.89E,172,8.453,32.523
709,2020/5/8,11:48,41-58.56N,141-35.93E,172,---,32.5209
710,2020/5/8,11:49,41-58.30N,141-35.98E,172,8.436,32.5243
711,2020/5/8,11:50,41-58.02N,141-36.03E,172,8.43,32.5251
712,2020/5/8,11:51,41-57.73N,141-36.08E,172,8.403,32.5283
713,2020/5/8,11:52,41-57.44N,141-36.13E,172,8.424,32.531
714,2020/5/8,11:53,41-57.11N,141-36.19E,172,8.455,32.5372
715,2020/5/8,11:54,41-56.94N,141-36.22E,171,8.471,32.5447
716,2020/5/8,11:55,41-56.66N,141-36.27E,171,8.43,32.5502
717,2020/5/8,11:56,41-56.34N,141-36.34E,171,8.508,32.5598
718,2020/5/8,11:57,41-56.10N,141-36.39E,171,8.486,32.564
719,2020/5/8,11:58,41-55.83N,141-36.44E,171,8.468,32.5735
720,2020/5/8,11:59,41-55.56N,141-36.49E,171,8.518,32.5709
721,2020/5/8,12:00,41-55.30N,141-36.54E,171,8.492,32.5693
722,2020/5/8,12:01,41-55.02N,141-36.60E,172,8.403,32.5739
723,2020/5/8,12:02,41-54.75N,141-36.63E,174,8.316,32.5779
724,2020/5/8,12:03,41-54.46N,141-36.67E,174,8.287,32.576
725,2020/5/8,12:04,41-54.19N,141-36.71E,174,8.288,32.5709
726,2020/5/8,12:05,41-53.90N,141-36.74E,174,8.297,32.5694
727,2020/5/8,12:06,41-53.62N,141-36.78E,174,8.282,32.5651
728,2020/5/8,12:07,41-53.33N,141-36.82E,174,8.208,32.5531
729,2020/5/8,12:08,41-53.05N,141-36.85E,174,8.138,32.5358
730,2020/5/8,12:09,41-52.81N,141-36.88E,174,8.041,32.5108
731,2020/5/8,12:10,41-52.54N,141-36.92E,173,7.818,32.4817
732,2020/5/8,12:11,41-52.26N,141-36.96E,174,7.613,32.4511
733,2020/5/8,12:12,41-51.98N,141-37.00E,174,7.477,32.4269
734,2020/5/8,12:13,41-51.71N,141-37.03E,174,7.291,32.3882
735,2020/5/8,12:14,41-51.43N,141-37.07E,174,7.198,32.3522
736,2020/5/8,12:15,41-51.10N,141-37.11E,174,7.074,32.3094
737,2020/5/8,12:16,41-50.86N,141-37.15E,174,7.037,32.281
738,2020/5/8,12:17,41-50.56N,141-37.17E,178,7.122,32.2557
739,2020/5/8,12:18,41-50.29N,141-37.17E,179,7.229,32.2126
740,2020/5/8,12:19,41-50.02N,141-37.17E,179,7.255,32.2099
741,2020/5/8,12:20,41-49.76N,141-37.17E,179,7.031,32.2062
742,2020/5/8,12:21,41-49.48N,141-37.16E,180,---,32.2162
743,2020/5/8,12:22,41-49.19N,141-37.16E,180,6.832,32.204
744,2020/5/8,12:23,41-48.93N,141-37.15E,180,6.828,32.193
745,2020/5/8,12:24,41-48.64N,141-37.14E,181,6.826,32.1707
746,2020/5/8,12:25,41-48.38N,141-37.13E,181,6.821,32.1659
747,2020/5/8,12:26,41-48.08N,141-37.12E,180,6.857,32.1359
748,2020/5/8,12:27,41-47.82N,141-37.11E,180,6.941,32.1178
749,2020/5/8,12:28,41-47.55N,141-37.11E,181,6.953,32.111
750,2020/5/8,12:29,41-47.27N,141-37.11E,179,6.792,32.0985
751,2020/5/8,12:30,41-46.99N,141-37.11E,179,6.734,32.1098
752,2020/5/8,12:31,41-46.56N,141-37.12E,179,6.793,32.088
753,2020/5/8,12:32,41-46.37N,141-37.13E,179,6.813,32.0689
754,2020/5/8,12:33,41-46.12N,141-37.13E,179,6.851,32.0584
755,2020/5/8,12:34,41-45.83N,141-37.13E,179,6.818,32.0616
756,2020/5/8,12:35,41-45.57N,141-37.13E,180,6.792,32.0713
757,2020/5/8,12:36,41-45.29N,141-37.13E,180,6.829,32.0745
758,2020/5/8,12:37,41-45.01N,141-37.13E,180,6.907,32.0835
759,2020/5/8,12:38,41-44.77N,141-37.13E,179,6.949,32.0869
760,2020/5/8,12:39,41-44.51N,141-37.13E,179,6.941,32.0952
761,2020/5/8,12:40,41-44.21N,141-37.13E,180,7.02,32.1099
762,2020/5/8,12:41,41-43.93N,141-37.13E,180,7.111,32.1278
763,2020/5/8,12:42,41-43.68N,141-37.13E,179,7.198,32.1365
764,2020/5/8,12:43,41-43.40N,141-37.15E,175,7.318,32.1498
765,2020/5/8,12:44,41-43.09N,141-37.21E,171,7.47,32.1642
766,2020/5/8,12:45,41-42.80N,141-37.28E,169,7.568,32.1771
767,2020/5/8,12:46,41-42.55N,141-37.34E,168,7.584,32.1889
768,2020/5/8,12:47,41-42.23N,141-37.43E,168,7.637,32.2121
769,2020/5/8,12:48,41-41.99N,141-37.49E,168,7.731,32.2231
770,2020/5/8,12:49,41-41.70N,141-37.57E,168,7.82,32.2287
771,2020/5/8,12:50,41-41.36N,141-37.66E,168,8.067,32.2443
772,2020/5/8,12:51,41-41.14N,141-37.72E,168,8.168,32.2571
773,2020/5/8,12:52,41-40.85N,141-37.79E,170,8.251,32.2832
774,2020/5/8,12:53,41-40.59N,141-37.84E,171,8.35,32.3187
775,2020/5/8,12:54,41-40.31N,141-37.89E,171,8.572,32.3474
776,2020/5/8,12:55,41-40.00N,141-37.96E,171,8.666,32.3793
777,2020/5/8,12:56,41-39.72N,141-38.01E,173,8.308,32.4294
778,2020/5/8,12:57,41-39.47N,141-38.04E,175,8.183,32.4614
779,2020/5/8,12:58,41-39.22N,141-38.06E,175,8.073,32.4852
780,2020/5/8,12:59,41-38.91N,141-38.09E,176,7.976,32.4758
781,2020/5/8,13:00,41-38.65N,141-38.11E,176,7.897,32.4607
782,2020/5/8,13:01,41-38.34N,141-38.15E,175,7.853,32.4283
783,2020/5/8,13:02,41-38.04N,141-38.18E,175,7.825,32.3965
784,2020/5/8,13:03,41-37.73N,141-38.21E,175,7.82,32.3651
785,2020/5/8,13:04,41-37.45N,141-38.25E,175,7.803,32.3441
786,2020/5/8,13:05,41-37.18N,141-38.27E,175,7.802,32.3236
787,2020/5/8,13:06,41-36.89N,141-38.30E,175,8.081,32.3126
788,2020/5/8,13:07,41-36.58N,141-38.34E,174,8.304,32.2867
789,2020/5/8,13:08,41-36.30N,141-38.38E,173,8.699,32.3007
790,2020/5/8,13:09,41-36.00N,141-38.42E,173,8.854,32.3645
791,2020/5/8,13:10,41-35.71N,141-38.46E,173,9.668,32.4025
792,2020/5/8,13:11,41-35.41N,141-38.50E,174,9.972,32.5091
793,2020/5/8,13:12,41-35.12N,141-38.53E,175,9.913,32.6285
794,2020/5/8,13:13,41-34.83N,141-38.57E,173,9.999,32.7601
795,2020/5/8,13:14,41-34.56N,141-38.61E,173,10.155,32.9126
796,2020/5/8,13:15,41-34.27N,141-38.64E,175,10.093,32.9652
797,2020/5/8,13:16,41-33.99N,141-38.67E,174,10.135,33.0378
798,2020/5/8,13:17,41-33.70N,141-38.71E,174,10.164,33.0996
799,2020/5/8,13:18,41-33.40N,141-38.75E,174,10.226,33.1409
800,2020/5/8,13:19,41-33.11N,141-38.79E,174,10.257,33.1712
801,2020/5/8,13:20,41-32.81N,141-38.82E,174,10.293,33.1962
802,2020/5/8,13:21,41-32.51N,141-38.85E,174,10.317,33.2112
803,2020/5/8,13:22,41-32.23N,141-38.89E,175,10.303,33.2259
804,2020/5/8,13:23,41-31.94N,141-38.92E,175,10.315,33.2373
805,2020/5/8,13:24,41-31.58N,141-38.95E,175,10.325,33.2423
806,2020/5/8,13:25,41-31.31N,141-38.98E,176,10.323,33.2469
807,2020/5/8,13:26,41-31.02N,141-39.00E,176,10.335,33.2515
808,2020/5/8,13:27,41-30.76N,141-39.03E,175,10.342,33.2602
809,2020/5/8,13:28,41-30.47N,141-39.05E,176,10.349,33.2639
810,2020/5/8,13:29,41-30.17N,141-39.08E,176,10.342,33.2674
811,2020/5/8,13:30,41-29.89N,141-39.10E,176,10.344,33.2705
812,2020/5/8,13:31,41-29.60N,141-39.12E,177,10.36,33.2709
813,2020/5/8,13:32,41-29.30N,141-39.14E,177,10.379,33.2721
814,2020/5/8,13:33,41-29.02N,141-39.15E,177,10.397,33.2729
815,2020/5/8,13:34,41-28.74N,141-39.17E,177,10.403,33.269
816,2020/5/8,13:35,41-28.43N,141-39.19E,177,10.415,33.2698
817,2020/5/8,13:36,41-28.16N,141-39.20E,177,10.426,33.2674
818,2020/5/8,13:37,41-27.85N,141-39.22E,177,10.437,33.2658
819,2020/5/8,13:38,41-27.58N,141-39.23E,178,10.454,33.2632
820,2020/5/8,13:39,41-27.29N,141-39.24E,178,10.459,33.2635
821,2020/5/8,13:40,41-27.01N,141-39.26E,178,10.469,33.26
822,2020/5/8,13:41,41-26.64N,141-39.28E,177,10.475,33.258
823,2020/5/8,13:42,41-26.42N,141-39.29E,177,10.47,33.2575
824,2020/5/8,13:43,41-26.14N,141-39.30E,177,10.479,33.2548
825,2020/5/8,13:44,41-25.84N,141-39.32E,178,10.497,33.2545
826,2020/5/8,13:45,41-25.57N,141-39.33E,178,10.509,33.2532
827,2020/5/8,13:46,41-25.25N,141-39.35E,177,10.531,33.2535
828,2020/5/8,13:47,41-24.93N,141-39.36E,178,10.533,33.2533
829,2020/5/8,13:48,41-24.67N,141-39.37E,177,10.542,33.2529
830,2020/5/8,13:49,41-24.37N,141-39.39E,177,10.559,33.2536
831,2020/5/8,13:50,41-24.11N,141-39.40E,178,10.585,33.2529
832,2020/5/8,13:51,41-23.80N,141-39.41E,177,10.62,33.2523
833,2020/5/8,13:52,41-23.55N,141-39.43E,177,10.641,33.2544
834,2020/5/8,13:53,41-23.26N,141-39.44E,178,10.65,33.261
835,2020/5/8,13:54,41-22.99N,141-39.45E,178,10.663,33.2669
836,2020/5/8,13:55,41-22.69N,141-39.47E,177,10.687,33.2717
837,2020/5/8,13:56,41-22.41N,141-39.48E,178,10.732,33.2728
838,2020/5/8,13:57,41-22.14N,141-39.49E,177,10.758,33.2722
839,2020/5/8,13:58,41-21.86N,141-39.50E,177,10.772,33.2742
840,2020/5/8,13:59,41-21.58N,141-39.52E,178,10.778,33.2724
841,2020/5/8,14:00,41-21.29N,141-39.53E,177,10.782,33.2724
842,2020/5/8,14:01,41-21.01N,141-39.54E,178,10.766,33.2707
843,2020/5/8,14:02,41-20.74N,141-39.55E,178,10.745,33.2706
844,2020/5/8,14:03,41-20.42N,141-39.56E,177,10.767,33.2678
845,2020/5/8,14:04,41-20.17N,141-39.57E,177,10.785,33.2619
846,2020/5/8,14:05,41-19.79N,141-39.58E,178,10.794,33.2663
847,2020/5/8,14:06,41-19.57N,141-39.59E,179,10.782,33.2623
848,2020/5/8,14:07,41-19.33N,141-39.60E,179,10.778,33.2598
849,2020/5/8,14:08,41-19.05N,141-39.60E,179,10.763,33.2603
850,2020/5/8,14:09,41-18.76N,141-39.60E,179,10.759,33.2582
851,2020/5/8,14:10,41-18.43N,141-39.60E,179,10.771,33.2548
852,2020/5/8,14:11,41-18.17N,141-39.62E,175,10.771,33.2544
853,2020/5/8,14:12,41-17.93N,141-39.67E,172,10.773,33.253
854,2020/5/8,14:13,41-17.65N,141-39.72E,171,10.784,33.2497
855,2020/5/8,14:14,41-17.35N,141-39.79E,170,10.779,33.25
856,2020/5/8,14:15,41-17.11N,141-39.84E,170,10.765,33.2486
857,2020/5/8,14:16,41-16.84N,141-39.90E,171,10.771,33.2468
858,2020/5/8,14:17,41-16.56N,141-39.96E,171,10.759,33.2467
859,2020/5/8,14:18,41-16.27N,141-40.01E,171,10.768,33.2469
860,2020/5/8,14:19,41-16.02N,141-40.06E,171,10.784,33.2435
861,2020/5/8,14:20,41-15.75N,141-40.12E,171,10.74,33.2434
862,2020/5/8,14:21,41-15.46N,141-40.17E,171,10.756,33.2442
863,2020/5/8,14:22,41-15.20N,141-40.22E,171,10.788,33.2448
864,2020/5/8,14:23,41-14.93N,141-40.28E,171,10.801,33.2458
865,2020/5/8,14:24,41-14.67N,141-40.33E,171,10.795,33.2431
866,2020/5/8,14:25,41-14.41N,141-40.38E,171,10.891,33.2446
867,2020/5/8,14:26,41-14.15N,141-40.46E,167,10.433,33.2373
868,2020/5/8,14:27,41-13.89N,141-40.54E,165,10.082,33.2279
869,2020/5/8,14:28,41-13.63N,141-40.62E,167,10.039,33.2055
870,2020/5/8,14:29,41-13.35N,141-40.70E,168,10.058,33.1359
871,2020/5/8,14:30,41-13.10N,141-40.77E,167,10.089,33.0995
872,2020/5/8,14:31,41-12.84N,141-40.85E,167,10.11,33.1017
873,2020/5/8,14:32,41-12.57N,141-40.94E,166,10.145,33.0795
874,2020/5/8,14:33,41-12.30N,141-41.02E,166,10.192,33.0742
875,2020/5/8,14:34,41-12.03N,141-41.11E,166,10.261,33.0741
876,2020/5/8,14:35,41-11.76N,141-41.19E,166,10.301,33.0763
877,2020/5/8,14:36,41-11.52N,141-41.27E,167,10.347,33.0805
878,2020/5/8,14:37,41-11.25N,141-41.35E,166,10.456,33.0876
879,2020/5/8,14:38,41-10.98N,141-41.44E,166,10.522,33.0964
880,2020/5/8,14:39,41-10.70N,141-41.52E,167,10.564,33.1114
881,2020/5/8,14:40,41-10.45N,141-41.60E,166,10.612,33.1282
882,2020/5/8,14:41,41-10.19N,141-41.68E,166,10.682,33.1378
883,2020/5/8,14:42,41-09.92N,141-41.76E,167,10.724,33.1517
884,2020/5/8,14:43,41-09.65N,141-41.84E,167,10.743,33.1682
885,2020/5/8,14:44,41-09.39N,141-41.92E,167,10.77,33.1818
886,2020/5/8,14:45,41-09.12N,141-42.00E,167,10.777,33.1909
887,2020/5/8,14:46,41-08.85N,141-42.08E,166,10.783,33.2001
888,2020/5/8,14:47,41-08.57N,141-42.16E,168,10.774,33.2082
889,2020/5/8,14:48,41-08.31N,141-42.23E,168,10.774,33.2109
890,2020/5/8,14:49,41-08.04N,141-42.31E,167,10.755,33.2136
891,2020/5/8,14:50,41-07.76N,141-42.39E,167,10.742,33.2155
892,2020/5/8,14:51,41-07.45N,141-42.48E,168,10.708,33.2169
893,2020/5/8,14:52,41-07.23N,141-42.54E,168,10.705,33.213
894,2020/5/8,14:53,41-06.94N,141-42.62E,168,10.72,33.2146
895,2020/5/8,14:54,41-06.69N,141-42.69E,167,10.734,33.2094
896,2020/5/8,14:55,41-06.41N,141-42.77E,167,10.747,33.21
897,2020/5/8,14:56,41-06.15N,141-42.84E,167,10.752,33.2059
898,2020/5/8,14:57,41-05.87N,141-42.92E,168,10.752,33.2071
899,2020/5/8,14:58,41-05.61N,141-43.00E,168,10.761,33.2055
900,2020/5/8,14:59,41-05.35N,141-43.07E,167,10.763,33.2046
901,2020/5/8,15:00,41-05.08N,141-43.14E,168,10.757,33.2069
902,2020/5/8,15:01,41-04.80N,141-43.22E,168,10.776,33.2036
903,2020/5/8,15:02,41-04.53N,141-43.29E,168,10.8,33.2033
904,2020/5/8,15:03,41-04.28N,141-43.36E,168,10.806,33.2047
905,2020/5/8,15:04,41-03.99N,141-43.43E,168,10.796,33.2099
906,2020/5/8,15:05,41-03.72N,141-43.51E,168,10.772,33.2147
907,2020/5/8,15:06,41-03.48N,141-43.57E,168,10.733,33.2196
908,2020/5/8,15:07,41-03.22N,141-43.64E,168,10.715,33.2236
909,2020/5/8,15:08,41-02.95N,141-43.70E,168,10.704,33.2232
910,2020/5/8,15:09,41-02.69N,141-43.77E,168,10.705,33.2221
911,2020/5/8,15:10,41-02.43N,141-43.84E,168,10.679,33.2178
912,2020/5/8,15:11,41-02.17N,141-43.91E,168,10.657,33.2143
913,2020/5/8,15:12,41-01.92N,141-43.98E,167,10.638,33.2146
914,2020/5/8,15:13,41-01.65N,141-44.06E,166,10.631,33.2071
915,2020/5/8,15:14,41-01.40N,141-44.14E,166,---,33.2123
916,2020/5/8,15:15,41-01.13N,141-44.23E,166,10.635,33.2066
917,2020/5/8,15:16,41-00.87N,141-44.30E,166,10.635,33.2079
918,2020/5/8,15:17,41-00.61N,141-44.38E,166,10.636,33.202
919,2020/5/8,15:18,41-00.33N,141-44.47E,167,10.628,33.2036
920,2020/5/8,15:19,41-00.07N,141-44.55E,167,10.613,33.2056
921,2020/5/8,15:20,40-59.81N,141-44.62E,167,10.608,33.2025
922,2020/5/8,15:21,40-59.56N,141-44.70E,167,10.608,33.2045
923,2020/5/8,15:22,40-59.30N,141-44.78E,166,---,33.2043
924,2020/5/8,15:23,40-59.03N,141-44.86E,166,10.622,33.2059
925,2020/5/8,15:24,40-58.77N,141-44.95E,165,10.611,33.2046
926,2020/5/8,15:25,40-58.51N,141-45.03E,165,10.607,33.2052
927,2020/5/8,15:26,40-58.22N,141-45.14E,165,10.604,33.2056
928,2020/5/8,15:27,40-57.96N,141-45.23E,165,10.601,33.2058
929,2020/5/8,15:28,40-57.70N,141-45.31E,165,10.626,33.2055
930,2020/5/8,15:29,40-57.44N,141-45.40E,166,10.658,33.2112
931,2020/5/8,15:30,40-57.18N,141-45.48E,166,10.681,33.2122
932,2020/5/8,15:31,40-56.92N,141-45.57E,165,10.711,33.2152
933,2020/5/8,15:32,40-56.66N,141-45.65E,166,10.744,33.2137
934,2020/5/8,15:33,40-56.40N,141-45.74E,166,10.779,33.2168
935,2020/5/8,15:34,40-56.11N,141-45.83E,166,10.814,33.218
936,2020/5/8,15:35,40-55.88N,141-45.90E,166,10.857,33.2201
937,2020/5/8,15:36,40-55.62N,141-45.98E,166,10.901,33.2219
938,2020/5/8,15:37,40-55.37N,141-46.06E,166,---,33.2252
939,2020/5/8,15:38,40-55.11N,141-46.15E,166,10.628,33.2298
940,2020/5/8,15:39,40-54.85N,141-46.23E,166,10.507,33.2272
941,2020/5/8,15:40,40-54.57N,141-46.32E,166,10.14,33.2081
942,2020/5/8,15:41,40-54.33N,141-46.40E,165,9.809,33.1829
943,2020/5/8,15:42,40-54.09N,141-46.49E,165,9.981,33.1487
944,2020/5/8,15:43,40-53.83N,141-46.57E,165,9.978,33.0715
945,2020/5/8,15:44,40-53.58N,141-46.66E,165,9.856,33.0095
946,2020/5/8,15:45,40-53.35N,141-46.74E,165,9.831,33.014
947,2020/5/8,15:46,40-53.09N,141-46.83E,164,9.813,33.0142
948,2020/5/8,15:47,40-52.82N,141-46.92E,165,9.833,33.0125
949,2020/5/8,15:48,40-52.56N,141-47.01E,165,9.874,32.9887
950,2020/5/8,15:49,40-52.32N,141-47.09E,165,9.924,32.9895
951,2020/5/8,15:50,40-52.06N,141-47.18E,165,10.11,32.992
952,2020/5/8,15:51,40-51.83N,141-47.26E,165,10.206,32.9991
953,2020/5/8,15:52,40-51.58N,141-47.35E,164,10.291,33.0157
954,2020/5/8,15:53,40-51.34N,141-47.43E,164,10.269,33.052
955,2020/5/8,15:54,40-51.05N,141-47.54E,164,10.142,33.0784
956,2020/5/8,15:55,40-50.81N,141-47.62E,164,10.039,33.088
957,2020/5/8,15:56,40-50.57N,141-47.71E,163,10.003,33.0802
958,2020/5/8,15:57,40-50.33N,141-47.80E,163,9.98,33.0618
959,2020/5/8,15:58,40-50.08N,141-47.90E,163,10.072,33.039
960,2020/5/8,15:59,40-49.79N,141-48.01E,163,10.059,33.0097
961,2020/5/8,16:00,40-49.56N,141-48.11E,162,10.09,32.9989
962,2020/5/8,16:01,40-49.28N,141-48.22E,163,10.114,33.0039
963,2020/5/8,16:02,40-49.01N,141-48.32E,162,10.135,33.0122
964,2020/5/8,16:03,40-48.77N,141-48.42E,163,10.125,33.014
965,2020/5/8,16:04,40-48.50N,141-48.53E,162,10.11,33.0137
966,2020/5/8,16:05,40-48.25N,141-48.65E,161,10.019,33.0136
967,2020/5/8,16:06,40-47.96N,141-48.78E,161,9.989,33.0107
968,2020/5/8,16:07,40-47.73N,141-48.88E,160,10.131,33.0089
969,2020/5/8,16:08,40-47.46N,141-49.00E,161,10.398,32.9982
970,2020/5/8,16:09,40-47.20N,141-49.11E,162,10.45,33.011
971,2020/5/8,16:10,40-46.95N,141-49.21E,162,10.426,33.0708
972,2020/5/8,16:11,40-46.69N,141-49.32E,162,10.456,33.1042
973,2020/5/8,16:12,40-46.41N,141-49.44E,162,10.466,33.132